Flag for Poland Weather past 2 weeks in Włocławek, Poland

Now
36 °F

Light rain. Overcast.


Feels Like: 29 °F
Forecast: 35 / 42 °F
Wind: 10 mph from West

Location: Plock

Current Time: Apr 1, 2015 at 7:06:49 AM

Latest Report: Apr 1, 2015 at 6:00 AM


Visibility: 8 mi

Pressure: 29.23 "Hg

Humidity: 88%

Dew point: 33 °F

Location of WłocławekLocation

Historic Weather in Włocławek — Graph

°F

Włocławek temperature yesterday

Maximum temperature yesterday: 44 °F (at 10:00 PM)
Minimum temperature yesterday: 34 °F (at 4:00 PM)
Average temperature yesterday: 39 °F

Past Weeks' High & Low Weather Summary

 TemperatureHumidityPressure
High61 °F (Mar 25, 4:00 PM)100% (Mar 29, 9:00 AM)30.71 "Hg (Mar 29, 9:00 AM)
Low24 °F (Mar 23, 5:00 AM)26% (Mar 18, 1:00 PM)29.09 "Hg (Mar 30, 5:00 AM)
Average42 °F69%29.96 "Hg
* Reported Mar 17 3:00 AM — Apr 1 4:00 AM, Włocławek, Weather by CustomWeather, © 2015

Note: Actual official high and low records may vary slightly from our data, if they occured in-between our weather recording intervals... More about our weather records

Advertising

Włocławek weather history for previous 24 hours

 ConditionsComfort  
Time TempWeatherWind HumidityBarometerVisibility
4:00 AM
Wed, Apr 1
38 °FLight rain. Overcast.10 mph88%29.15 "Hg4 mi
3:00 AM38 °FLight rain. Overcast.12 mph87%29.12 "Hg3 mi
2:00 AM39 °FRain showers. Overcast.10 mph89%29.12 "Hg6 mi
1:00 AM40 °FLight rain. Overcast.10 mph87%29.12 "Hg3 mi
12:00 AM42 °FRain showers. Overcast.10 mph85%29.12 "Hg12 mi
10:00 PM
Tue, Mar 31
44 °FRain showers. Overcast.7 mph86%29.09 "Hg9 mi
9:00 PM43 °FQuite cool.8 mph87%29.09 "Hg31 mi
8:00 PM42 °FLight rain. Overcast.6 mph91%29.09 "Hg6 mi
7:00 PM43 °FRain showers. Cloudy.5 mph92%29.09 "Hg5 mi
6:00 PM40 °FDrizzle. Cloudy.2 mph95%29.09 "Hg3 mi
5:00 PM37 °FChilly.5 mph96%29.09 "Hg6 mi
4:00 PM34 °FRain. Cloudy.6 mph96%29.12 "Hg2 mi
3:00 PM35 °FFreezing rain. Cloudy.8 mph95%29.15 "Hg3 mi
2:00 PM35 °FLight rain. Cloudy.7 mph94%29.21 "Hg3 mi
1:00 PM36 °FRain showers. Cloudy.10 mph84%29.26 "Hg4 mi
12:00 PM40 °FQuite cool.7 mph68%29.29 "Hg14 mi
11:00 AM40 °FChilly.7 mph68%29.35 "Hg10 mi
10:00 AM39 °FChilly.6 mph72%29.41 "Hg12 mi
9:00 AM39 °FChilly.6 mph73%29.44 "Hg17 mi
8:00 AM39 °FChilly.7 mph76%29.47 "Hg17 mi
7:00 AM38 °FChilly.7 mph73%29.50 "Hg17 mi
Weather by CustomWeather, © 2015

See weather overviewHow to use our weather pages